[Date Prev][Date Next][Thread Prev][Thread Next] - [Date Index][Thread Index][Author Index]

2 Line ISS Keps 11-14



ISS
1 25544U 98067A   02318.59364306  .00037047  00000-0  46561-3 0  3787
2 25544  51.6380  17.8066 0013949 136.3178 223.9442 15.58895585227431


----
Via the sarex mailing list at AMSAT.ORG courtesy of AMSAT-NA.
To unsubscribe, send "unsubscribe sarex" to Majordomo@amsat.org



AMSAT Top AMSAT Home